Regional Weather Roundup
Issued by NWS

Home | Current Version | Previous Version | Graphics & Text | Print | Product List | Glossary On
Versions: 1 2 3 4 5 6 7 8 9 10 11 12 13 14 15 16 17 18 19 20 21 22 23 24 25 26 27 28 29 30 31 32 33 34 35 36 37 38 39 40 41 42 43 44 45 46 47 48 49 50
000
ASUS45 KSLC 202010
RWRUT

UTAH REGIONAL WEATHER ROUNDUP
NATIONAL WEATHER SERVICE SALT LAKE CITY UT
200 PM MDT MON OCT 20 2014

UTZ001>011-023>025-202100-

NORTHERN UTAH

CITY           SKY/WX    TMP DP  RH WIND       PRES   REMARKS
BRIGHAM CITY   SUNNY     70  32  24 SW6       30.01F
HILL AFB       MOSUNNY   73  37  27 S13       30.02F
LOGAN          SUNNY     68  35  29 VRB5      30.01F
OGDEN          MOSUNNY   73  37  27 CALM      30.00F
PROVO AIRPORT  MOSUNNY   72  43  35 CALM      30.02F
SALT LAKE CITY MOSUNNY   76  34  21 S15G22    29.98F
VERNAL         SUNNY     65  37  35 CALM      30.12F
WENDOVER       SUNNY     63  36  36 E7        30.00F
HEBER CITY     SUNNY     72  34  25 SW8       30.05F
WEST JORDAN    MOSUNNY   73  46  38 SE14G23   30.01F

$$

UTZ012>022-026-027-202100-

SOUTHERN/CENTRAL UTAH

CITY           SKY/WX    TMP DP  RH WIND       PRES   REMARKS
BLANDING       SUNNY     67  38  35 S5        30.23F
BRYCE CANYON   SUNNY     60  38  43 SE13G18   30.21F
CEDAR CITY     PTSUNNY   72  38  29 SW14G23   30.05F
DELTA          SUNNY     73  35  24 CALM      30.02F
HANKSVILLE       N/A     72  37  28 CALM      30.09F
MILFORD        SUNNY     75  37  25 SW14G21   30.02F
MOAB/CYNLANDS  SUNNY     75  39  27 NE5       30.06F
PRICE          MOSUNNY   68  36  30 SE7       30.15F
ST GEORGE      CLEAR     81  41  24 N6        29.95F
KANAB            N/A     73  39  29 NE10      30.10F

$$

REGIONAL REPORTS     COLORADO/ARIZONA

CITY           SKY/WX    TMP DP  RH WIND       PRES   REMARKS
CRAIG, CO      MOSUNNY   71  35  26 W8        30.14F
GRAND JUNCTION SUNNY     71  44  37 VRB3      30.10F
RIFLE          CLOUDY    65  39  38 NE6       30.13F
MONTROSE       MOSUNNY   70  36  28 N7        30.15F
CORTEZ         MOSUNNY   70  39  32 S13G22    30.16F
PAGE, AZ       NOT AVBL
GRAND CANYON   MOSUNNY   67  37  33 NE10      30.15F
KINGMAN        SUNNY     80  44  27 SW8       29.98F
FLAGSTAFF      PTSUNNY   63  38  39 E6        30.17F

$$

REGIONAL REPORTS    NEVADA/IDAHO/WYOMING

CITY           SKY/WX    TMP DP  RH WIND       PRES   REMARKS
LAS VEGAS, NV  MOSUNNY   83  40  21 CALM      29.86F
ELY            SUNNY     71  31  22 SW21G32   30.05F
ELKO           SUNNY     76  29  17 SW13G23   29.93F
POCATELLO, ID  MOSUNNY   72  36  26 CALM      29.97F
BURLEY         MOSUNNY   78  38  23 S17G23    29.90F
EVANSTON, WY   MOSUNNY   68  31  25 SW14      30.14F
ROCK SPRINGS   SUNNY     65  29  25 N5        30.13F
KEMMERER       PTSUNNY   64  30  27 S5        30.15F

$$


USA.gov is the U.S. government's official web portal to all federal, state and local government web resources and services.